カタログに戻る

ANSER-FLW1

運用中科学PO
NORAD 58019·PAYLOAD·🇪🇸 Spain

打ち上げ Oct 9, 2023 から Guiana Space Centre

Loading…

次のパス (今後24時間)

TLE

最新Source: Space-Track

元期: Sep 14, 2026, 12:57 UTC

1 58019U 23155D   26257.54013200  .00054031  00000-0  68810-3 0  9995
2 58019  97.5503 351.9639 0002468 114.4950 245.6564 15.59172934162821

AllMySatでANSER-FLW1をリアルタイム追跡

Download on the App Store